Regional Weather Roundup
Issued by NWS

Home | Current Version | Previous Version | Graphics & Text | Print | Product List | Glossary On
Versions: 1 2 3 4 5 6 7 8 9 10 11 12 13 14 15 16 17 18 19 20 21 22 23 24 25 26 27 28 29 30 31 32 33 34 35 36 37 38 39 40 41 42 43 44 45 46 47 48 49 50
000
ASUS43 KMKX 260621
RWRWI

WISCONSIN REGIONAL WEATHER ROUNDUP
NATIONAL WEATHER SERVICE MILWAUKEE/SULLIVAN WI
100 AM CDT SAT MAY 26 2018

NOTE: "FAIR" INDICATES FEW OR NO CLOUDS BELOW 12,000 FEET WITH NO
SIGNIFICANT WEATHER AND/OR OBSTRUCTIONS TO VISIBILITY.

WIZ001-002-006>008-014>016-023>028-260700-
NORTHWEST WISCONSIN

CITY           SKY/WX    TMP DP  RH WIND       PRES   REMARKS
SUPERIOR ARPT  FAIR      65  62  90 SW6       29.63S
6HR MIN TEMP:  61; 6HR MAX TEMP:  83;

ASHLAND        FAIR      69  62  78 SW10      29.65S
6HR MIN TEMP:  65; 6HR MAX TEMP:  82;

HAYWARD        FAIR      59  58  96 S3        29.69F
6HR MIN TEMP:  59; 6HR MAX TEMP:  70; 6HR PCP:  0.18;

SIREN          FAIR      67  57  68 SW6       29.68F
6HR MIN TEMP:  67; 6HR MAX TEMP:  83;

CUMBERLAND     FAIR      61  57  88 CALM      29.70F
RICE LAKE      FAIR      64  60  88 CALM      29.71F
6HR MIN TEMP:  63; 6HR MAX TEMP:  76;

CHETEK         FAIR      62  60  91 CALM      29.70S
6HR MIN TEMP:  62; 6HR MAX TEMP:  76;

LADYSMITH      FAIR      62  56  83 CALM      29.72F
6HR MIN TEMP:  64; 6HR MAX TEMP:  79;

EAU CLAIRE     FAIR      59  57  93 SW3       29.69S
6HR MIN TEMP:  59; 6HR MAX TEMP:  77; 6HR PCP: TRACE;

MENOMONIE      FAIR      64  62  91 SW7       29.70S
6HR MIN TEMP:  61; 6HR MAX TEMP:  74; 6HR PCP:  0.68;

NEW RICHMOND   FAIR      64  61  92 CALM      29.71S
6HR MIN TEMP:  64; 6HR MAX TEMP:  70;

OSCEOLA        FAIR      62  60  94 CALM      29.73S
6HR MIN TEMP:  61; 6HR MAX TEMP:  73;

$$

WIZ003>005-009-010-017-018-260700-
NORTH CENTRAL WISCONSIN

CITY           SKY/WX    TMP DP  RH WIND       PRES   REMARKS
MANITOWISH WTR   N/A     58  58 100 CALM      29.71R FOG
6HR MIN TEMP:  58; 6HR MAX TEMP:  75;

ARBOR VITAE    FAIR      64  62  91 CALM      29.71S
6HR MIN TEMP:  63; 6HR MAX TEMP:  77;

WOODRUFF       FAIR      64  62  91 CALM      29.71S
6HR MIN TEMP:  63; 6HR MAX TEMP:  77;

RHINELANDER    FAIR      65  62  90 W5        29.72S
6HR MIN TEMP:  65; 6HR MAX TEMP:  81;

EAGLE RIVER    FAIR      62  62 100 CALM      29.71S
6HR MIN TEMP:  62; 6HR MAX TEMP:  76;

LAND O LAKES   FOG       62  61  97 CALM      29.72F VSB 1
6HR MIN TEMP:  62; 6HR MAX TEMP:  77;

PHILLIPS       FAIR      63  62  95 CALM      29.70F
6HR MIN TEMP:  60; 6HR MAX TEMP:  78;

TOMAHAWK       FAIR      59  57  95 CALM      29.72S
6HR MIN TEMP:  59; 6HR MAX TEMP:  77;

MEDFORD        FAIR      59  59  99 CALM      29.72S FOG
6HR MIN TEMP:  58; 6HR MAX TEMP:  70;

MERRILL        FAIR      60  60 100 CALM      29.72S FOG
6HR MIN TEMP:  60; 6HR MAX TEMP:  78;

$$

WIZ029-030-035-036-043>047-260700-
CENTRAL WISCONSIN

CITY           SKY/WX    TMP DP  RH WIND       PRES   REMARKS
WAUSAU         NOT AVBL
MOSINEE        FAIR      63  61  94 SW7       29.73S
MARSHFIELD     FAIR      64  60  87 CALM      29.71S
6HR MIN TEMP:  63; 6HR MAX TEMP:  79;

STEVENS POINT  FAIR      64  64 100 S5        29.73R
6HR MIN TEMP:  63; 6HR MAX TEMP:  74;

WAUPACA        FAIR      69  64  84 CALM      29.71S
6HR MIN TEMP:  69; 6HR MAX TEMP:  83;

WAUTOMA        FAIR      68  64  87 CALM      29.72S
6HR MIN TEMP:  68; 6HR MAX TEMP:  81;

WISC RAPIDS    FAIR      65  62  90 CALM      29.73R
6HR MIN TEMP:  64; 6HR MAX TEMP:  78; 6HR PCP: TRACE;

CAMP DOUGLAS   FAIR      64  61  88 W7        29.71S
6HR MIN TEMP:  64; 6HR MAX TEMP:  78; 6HR PCP:  0.03;

$$

WIZ011>013-019>022-031-037>040-048>050-260700-
NORTHEAST WISCONSIN

CITY           SKY/WX    TMP DP  RH WIND       PRES   REMARKS
ANTIGO         FAIR      63  61  92 CALM      29.72R
6HR MIN TEMP:  62; 6HR MAX TEMP:  77;

SHAWANO        FAIR      69  65  86 SW3       29.70S
6HR MIN TEMP:  69; 6HR MAX TEMP:  81;

OCONTO         FAIR      63  60  88 CALM      29.69F
6HR MIN TEMP:  63; 6HR MAX TEMP:  83;

STURGEON BAY   FAIR      60  57  89 SE10      29.72R
6HR MIN TEMP:  60; 6HR MAX TEMP:  79; 6HR PCP: TRACE;

GREEN BAY      FAIR      70  62  76 SW3       29.70S
6HR MIN TEMP:  70; 6HR MAX TEMP:  83;

MANITOWOC      FAIR      60  55  83 E3        29.71
6HR MIN TEMP:  60; 6HR MAX TEMP:  75;

APPLETON       FAIR      68  55  64 SW6       29.71R
CLINTONVILLE   FAIR      68  66  92 CALM      29.70S
6HR MIN TEMP:  66; 6HR MAX TEMP:  76; 6HR PCP:  0.05;

OSHKOSH        FAIR      70  62  76 SW7       29.70F
6HR MIN TEMP:  70; 6HR MAX TEMP:  82;

$$

WIZ032>034-041-042-053>061-260700-
SOUTHWEST WISCONSIN

CITY           SKY/WX    TMP DP  RH WIND       PRES   REMARKS
LA CROSSE      FAIR      67  62  84 SE5       29.71R
6HR MIN TEMP:  66; 6HR MAX TEMP:  71; 6HR PCP:  0.03;

SPARTA         FAIR      63  60  91 CALM      29.72S
6HR MIN TEMP:  63; 6HR MAX TEMP:  68;

VIROQUA        FAIR      65  62  88 SW10      29.73F
6HR MIN TEMP:  64; 6HR MAX TEMP:  69; 6HR PCP:  0.01;

BOSCOBEL       FAIR      68  61  78 SW3       29.71F
6HR MIN TEMP:  67; 6HR MAX TEMP:  79; 6HR PCP:  0.22;

PRAIRIE DU CHI FAIR      66  60  80 CALM      29.74R
6HR MIN TEMP:  64; 6HR MAX TEMP:  83; 6HR PCP:  0.43;

PLATTEVILLE    FAIR      68  61  77 SW15G21   29.75F
6HR MIN TEMP:  66; 6HR MAX TEMP:  79; 6HR PCP:  0.10;

$$

WIZ056-057-062-063-064-067-068-260700-
SOUTH CENTRAL WISCONSIN

CITY           SKY/WX    TMP DP  RH WIND       PRES   REMARKS
REEDSBURG      FAIR      67  59  74 CALM      29.72S
6HR MIN TEMP:  68; 6HR MAX TEMP:  78;

BARABOO/DELLS  FAIR      69  57  67 CALM      29.72F
6HR MIN TEMP:  69; 6HR MAX TEMP:  79;

LONE ROCK      FAIR      67  61  81 VRB3      29.72F
6HR MIN TEMP:  66; 6HR MAX TEMP:  80; 6HR PCP:  0.05;

MINERAL POINT  FAIR      70  59  68 SW13G21   29.72F
MADISON        FAIR      72  63  73 NW5       29.72F
6HR MIN TEMP:  71; 6HR MAX TEMP:  80;

MIDDLETON      FAIR      72  61  68 W3        29.74F
6HR MIN TEMP:  72; 6HR MAX TEMP:  82;

WATERTOWN      FAIR      69  66  89 SW7       29.74R
6HR MIN TEMP:  69; 6HR MAX TEMP:  79;

MONROE         CLOUDY    70  55  60 W7        29.78R
JANESVILLE     FAIR      70  61  73 SW6       29.73S
$$

WIZ051-052-058>065-066-070>072-260700-
SOUTHEAST WISCONSIN

CITY           SKY/WX    TMP DP  RH WIND       PRES   REMARKS
MILWAUKEE      FAIR      72  63  73 S6        29.72F
6HR MIN TEMP:  71; 6HR MAX TEMP:  82;

WAUKESHA       FAIR      66  61  82 S3        29.74S
MILWAUKEE/TIMM FAIR      70  57  64 S5        29.73F
RACINE         FAIR      73  64  73 SW9       29.75F
6HR MIN TEMP:  70; 6HR MAX TEMP:  78;

BURLINGTON     FAIR      67  62  84 S5        29.73F
6HR MIN TEMP:  66; 6HR MAX TEMP:  78;

KENOSHA        FAIR      72  63  73 S8        29.75F
6HR MIN TEMP:  72; 6HR MAX TEMP:  79;

FOND DU LAC    FAIR      70  62  76 S9        29.71S
6HR MIN TEMP:  70; 6HR MAX TEMP:  82;

SHEBOYGAN      FAIR      67  60  78 CALM      29.71F
6HR MIN TEMP:  66; 6HR MAX TEMP:  80;

WEST BEND      FAIR      66  61  82 S5        29.73S
JUNEAU         FAIR      65  62  89 SW5       29.74S
6HR MIN TEMP:  65; 6HR MAX TEMP:  78;

$$

LSZ147-162-260700-
LAKE SUPERIOR

STATION/POSITION TIME  TEMP    WIND        PRES    WAVE
                       AIR SEA DIR/SP/G            HT/PER
                 (UTC) (F)     (DEG/KT/KT) (MB)    (FT/S)
W MID LAKE BUOY  0550   48 36  220/  6/  6 1003.3R   0
DEVILS ISLAND    0600          270/ 11/ 14 1003.2R
SAXON HARBOR     0540   72     190/  7/ 11 1003.4R
$$

LMZ867-665-643>646-260700-
LAKE MICHIGAN

STATION/POSITION TIME  TEMP    WIND        PRES    WAVE




USA.gov is the U.S. government's official web portal to all federal, state and local government web resources and services.